www.pogodaiklimat.ru
ПОГОДА в Филадельфии
Время
и дата
05:54 16.08
06:54 16.08
07:54 16.08
08:54 16.08
09:54 16.08
10:54 16.08
11:54 16.08
12:54 16.08
13:54 16.08
14:54 16.08
15:54 16.08
16:54 16.08
17:54 16.08
18:54 16.08
19:54 16.08
20:54 16.08
21:54 16.08
22:54 16.08
23:54 16.08
00:54 17.08
01:54 17.08
02:54 17.08
03:54 17.08
04:54 17.08
05:54 17.08
06:54 17.08
07:54 17.08
08:54 17.08
09:54 17.08
10:54 17.08
11:54 17.08
12:54 17.08
13:54 17.08
14:54 17.08
15:54 17.08
16:54 17.08
17:54 17.08
18:54 17.08
19:54 17.08
20:54 17.08
21:54 17.08
22:54 17.08
23:54 17.08
00:54 18.08
01:54 18.08
02:54 18.08
03:54 18.08
04:54 18.08
Ветер
(напр.,м/с)
Видим. Явления Облачность Т
(С)
Тd
(С)
f
(%)
Тe
(С)
Тes
(С)
Комфортность P
(гПа)
Po
(гПа)
Тmin
(С)
Tmax
(С)
R
(мм)
R24
(мм)
S
(см)
СВ 1 16 км ясно +17.2 +12.8 75 +17 +17 1016.4 1012.1
СВ 2 16 км ясно +20.6 +13.9 65 +23 +24 комфорт 1016.9 1012.5 +15.6 +20.6
СВ 3 16 км ясно +23.3 +15.0 60 +27 +28 душно 1016.7 1012.5
СВ 3 16 км ясно +25.0 +12.2 45 +27 +28 жарко 1016.2 1012.1
В 3 16 км ясно +25.6 +11.7 42 +27 +30 жарко 1016.4 1012.1
СВ 3
{5}
16 км ясно +27.2 +11.1 37 +28 +32 жарко 1016.7 1012.5
СВ 3
{6}
16 км ясно +28.3 +10.0 32 +29 +35 жарко 1016.3 1012.1
СВ 3 16 км ясно +28.9 +10.0 31 +29 +36 жарко 1016.3 1012.1 +20.6 +29.4
В 3 16 км ясно +28.9 +10.0 31 +29 +34 жарко 1015.9 1011.8
В 3
{5}
16 км 5/5 1950 м +28.9 +11.1 33 +29 +31 жарко 1015.7 1011.5
ЮВ 2
{4}
16 км 2/2 1800 м +28.3 +12.2 37 +29 +34 жарко 1015.4 1011.1
В 2 16 км ясно +27.2 +12.2 39 +28 +32 жарко 1015.5 1011.1
ЮВ 1 16 км ясно +26.7 +12.2 41 +28 +30 жарко 1015.4 1011.1
ЮВ 1 16 км ясно +25.0 +12.8 47 +27 +27 жарко 1015.7 1011.5 +25.0 +29.4
ЮВ 1 16 км ясно +23.9 +12.8 50 +26 +26 жарко 1015.8 1011.5
ЮВ 1 16 км ясно +22.8 +13.9 57 +26 +26 жарко 1016.2 1011.8
ЮВ 1 16 км ясно +21.7 +13.9 61 +25 +25 комфорт 1016.1 1011.8
штиль 0 16 км ясно +20.0 +13.9 68 +22 +22 комфорт 1016.3 1012.1
штиль 0 16 км ясно +18.9 +13.9 73 +20 +20 1016.4 1012.1
штиль 0 16 км 8/2 1650 м
[Ac]
+20.0 +14.4 70 +22 +22 комфорт 1016.4 1012.1 +18.9 +25.0
штиль 0 16 км 10/10 1650 м +20.0 +15.0 73 +22 +22 комфорт 1016.5 1012.1
штиль 0 16 км 8/8 1650 м
[Ac]
+20.0 +15.0 73 +22 +22 комфорт 1016.3 1012.1
СВ 1 16 км 5/5 660 м +18.9 +14.4 75 +21 +21 комфорт 1016.4 1012.1
С 1 16 км ясно +18.9 +15.0 78 +21 +21 комфорт 1016.5 1012.1
штиль 0 16 км ясно +19.4 +15.0 76 +21 +21 комфорт 1017.0 1012.8
СВ 1 16 км ясно +22.2 +16.1 68 +26 +27 душно 1017.2 1012.8 +17.8 +22.2
СВ 1 16 км ясно +23.9 +16.1 62 +27 +29 жарко 1017.2 1012.8
нст 1 16 км ясно +25.6 +15.0 52 +28 +33 жарко 1017.2 1012.8
В 1 16 км 2/2 1470 м +26.1 +12.2 42 +28 +34 жарко 1017.1 1012.8
С 1 16 км 8/8 1650 м +27.8 +12.8 40 +29 +32 жарко 1016.6 1012.5
нст 1 16 км 8/5 1950 м
[Ac]
+27.2 +10.6 35 +28 +34 жарко 1016.3 1012.1
СВ 2 16 км 10/0 3000 м
[Ac]
+27.2 +11.7 38 +28 +32 жарко 1015.9 1011.8 +21.7 +28.9
СВ 2 16 км 10/0 3000 м
[Ac]
+27.8 +12.2 38 +29 +32 жарко 1015.5 1011.1
СВ 1 16 км 5/0 3300 м
[Ac]
+27.8 +10.0 33 +28 +36 жарко 1014.8 1010.5
штиль 0 16 км 8/2 1950 м
[Ac]
+27.2 +11.1 37 +28 +35 жарко 1014.1 1009.8
В 1 16 км ясно +27.8 +10.6 34 +28 +33 жарко 1014.2 1010.1
нст 1 16 км 10/8 1950 м
[Ac]
+27.2 +11.1 37 +28 +28 жарко 1013.9 1009.8
Ю 1 16 км 8/0 2400 м
[Ac]
+26.1 +11.1 39 +27 +27 жарко 1014.2 1009.8 +26.1 +29.4
Ю 1 16 км 8/0 2100 м
[Ac]
+25.0 +12.2 45 +27 +27 жарко 1014.6 1010.5
СЗ 1 16 км 2/0 3600 м
[Ac]
+23.9 +12.8 50 +26 +26 жарко 1014.7 1010.5
СЗ 1 16 км 2/0 2100 м
[Ac]
+22.8 +15.0 61 +27 +27 душно 1014.4 1010.1
штиль 0 16 км ясно +21.7 +15.0 66 +25 +25 комфорт 1014.0 1009.8
СЗ 1 16 км ясно +20.0 +14.4 70 +23 +23 комфорт 1013.9 1009.8
С 1 16 км ясно +18.9 +13.3 70 +20 +20 1013.6 1009.4 +18.9 +26.1
штиль 0 16 км ясно +18.3 +12.8 70 +19 +19 1013.5 1009.1
штиль 0 16 км ясно +17.2 +12.2 72 +17 +17 1013.5 1009.4
З 1 16 км ясно +17.8 +12.8 73 +18 +18 1013.8 1009.4
З 1 16 км ясно +17.2 +13.3 78 +18 +18 1014.0 1009.8
Местоположение метеостанции Northeast Philadelphia Airport: широта 40.0789 долгота -75.0136 высота над уровнем моря 36 м.
В архиве по умолчанию представлена погода в Филадельфии за последние 1-2 суток. Обновление информации о фактической погоде в базе происходит ежечасно! Архивные данные за месяц целиком и за предыдущие месяцы Вы можете получить, выбрав интересующий диапазон дат из раскрывающегося списка и нажав кнопку "Ввод!".
Внимание! Архив погоды МЕТАР в базе сайта по станциям, не включенным в климатический монитор, хранится не более 60 дней. Нет смысла пытаться выбрать более раннюю дату.
*Определитесь, кто Вы:
Внимание! Время в таблицах - местное (без учета летнего времени). Для получения всемирного времени необходимо вычесть поправку, которая равна -5 ч.
Смотрите также архив погоды в соседних городах и на ближайших метеорологических станциях:
Партнеры нашего сайта:      
Пояснения к столбцам:
  • Ветер - указаны скорость ветра в м/с - средняя за 10 мин, порывы в срок и между сроками (в фигурных скобках) и направление, откуда дует ветер: С - северный,
  • СВ - северо-восточный, В - восточный, ЮВ - юго-восточный, Ю - южный, ЮЗ - юго-западный, З - западный, СЗ - северо-западный.
  • Видимость - горизонтальная дальность видимости в метрах или километрах. При видимости от 1 до 10 км при отсутствии осадков обычно наблюдается дымка, при ухудшении видимости до 1 км и менее - туман. В сухую погоду видимость может ухудшаться дымом, пылью или мглою.
  • Явления - указаны атмосферные явления, наблюдавшиеся в срок или в последний час перед сроком; фигурными скобками обозначены явления, наблюдавшиеся между сроками (за 1-3 часа до срока); квадратными скобками обозначены град или гололедные отложения с указанием их диаметра в мм.
  • Облачность - указаны через наклонную черту общая и нижняя облачность в баллах и высота нижней границы облаков в метрах; квадратными скобками обозначены формы облаков: Ci - перистые, Cs - перисто-слоистые, Cc - перисто-кучевые, Ac - высококучевые, As - высокослоистые, Sc - слоисто-кучевые, Ns - слоисто-дождевые, Cu - кучевые, Cb - кучево-дождевые. Подробнее классификацию облаков см. в Атласе облаков (PDF).
  • T - Температура воздуха - температура, измеренная на высоте 2 м над землей.
  • Td - Температура точки росы - температура, при понижении до которой содержащийся в воздухе водяной пар достигнет насыщения.
  • f - Относительная влажность воздуха - влажноcть воздуха, измеренная на высоте 2 м над землей.
  • Te - Эффективная температура - температура, которую ощущает одетый по сезону человек в тени. Характеристика душности погоды. При расчете учитывается влияние влажности воздуха и скорости ветра на теплоощущения человека.
  • Tes - Эффективная температура на солнце - температура, которую ощущает человек, с поправкой на солнечный нагрев. Характеристика знойности погоды. Зависит от высоты солнца над горизонтом, облачности и скорости ветра. Ночью, в пасмурную погоду, а также при ветре 12 м/с и более поправка равна нулю.
  • P - Атмосферное давление - приведенное к уровню моря атмосферное давление.
  • Po - Атмосферное давление - измеренное на уровне метеостанции атмосферное давление.
  • Tmin - Минимальная температура - минимум температуры воздуха на высоте 2 м над землей.
  • Tmax - Максимальная температура - максимум температуры воздуха на высоте 2 м над землей.
  • R - Количество осадков - Количество выпавших осадков за период времени, мм. При наведении курсора мыши на число - период времени, за который выпало указанное количество осадков.
  • R24 - Количество осадков - Количество выпавших осадков за 24 часа, мм.
  • S - Снежный покров - Высота снежного покрова, см. При наведении курсора мыши на число - состояние снежного покрова и степень покрытия местности в баллах.